Weather in Vereya

Russia / Moscow Oblast     55°20′36″N   36°11′08″E
temp.,
°C
wind,
m/s
gust,
m/s
humid.,
%
clouds,
%
prec.,
mm/h
press.,
hPa
HPBL,
m
25 february, thu
thu2500:00−11ssw3796100 0.1 1026264
03:00−8sw3995100 0.2 1024301
06:00−2sw51397100 0.4 1019560
09:00+2wsw414100100 0.8 1016561
12:00+3wnw414100100 0.1 1015565
15:00+3wnw412100100 0.3 1016383
18:00+3wnw41299100 0.2 1016438
21:00+2w310100100 0.2 1017323
26 february, fri
fri2600:00+3w41499100 0.4 1016457
03:00+3w41199100 0.5 1015370
06:00+2w51198100 0.4 1012478
09:00+2wsw51398100 0.5 1010548
12:00+3wsw41398100 0.1 1007515
15:00+4w51495100 0.7 1006866
18:00+3wnw5148772 0.1 10061057
21:00+2wnw6148586 0.1 10071061
27 february, sat
sat2700:000wnw5148851 0.0 1006683
03:00+1w4119354 0.0 1006675
06:00+1w4997100 0.1 1004556
09:000nw3898100 0.5 1005391
12:00+1nw3797100 0.1 1005528
15:00+1nw3892100 0.1 1007585
18:000nw4997100 0.1 1009627
21:00−1nw4129396 0.3 1011607
28 february, sun
sun2800:00−2nnw5119284 0.1 1012664
03:00−3nnw5119191 0.3 1014650
06:00−3nnw51191100 0.1 1016654
09:00−4nnw51090100 0.1 1017636
12:00−2nnw5882100 0.1 1018750
15:00−2nnw4782100 0.1 1020770
18:00−3nnw3788100 0.1 1021581
21:00−3nnw3687100 0.1 1023498
1 march, mon
mon100:00−4n2584100 0.1 1025330
03:00−5nnw2592100 0.1 1027253
06:00−6nw249591 0.0 1028128
09:00−6wnw249150 0.0 1029162
12:00−2w24790 0.0 1030485
15:000w37803 0.0 1030506
18:00−1wnw399388 0.0 1029546
21:00−1w3119493 0.0 1029496